Shirley, NY

10:53 PM EST on December 14, 2017 (GMT -0500)
Brookhaven

Weather History for KHWV - April, 2014

Change the Weather History Date:

Thursday, April 10, 2014

  Actual Average (KISP) Record (KISP)
Temperature  
Mean Temperature 40 °F -  
Max Temperature 52 °F 55 °F 77 °F (1991)
Min Temperature 28 °F 37 °F 27 °F (1997)
Degree Days  
Heating Degree Days 25    
Moisture  
Dew Point 28 °F    
Average Humidity 55    
Maximum Humidity 74    
Minimum Humidity 38    
Precipitation  
Precipitation 0.00 in - - ()
Sea Level Pressure  
Sea Level Pressure 30.15 in    
Wind  
Wind Speed 8 mph (SSW)    
Max Wind Speed 21 mph    
Max Gust Speed 29 mph    
Visibility 10 miles    
Events      
Averages and records for this station are not official NWS values.
T = Trace of Precipitation, MM = Missing Value Source: NWS Daily Summary

Daily Weather History Graph

Daily Weather History Graph

Search for Another Location

Airport or City:

Trip Planner

Search our weather history database for the weather conditions in past years. The results will help you decide how hot, cold, wet, or windy it might be!

Date:

Astronomy

Apr. 10, 2014 Rise Set
Actual Time 6:20 AM EDT 7:25 PM EDT
Civil Twilight 5:52 AM EDT 7:53 PM EDT
Nautical Twilight 5:18 AM EDT 8:27 PM EDT
Astronomical Twilight 4:43 AM EDT 9:02 PM EDT
Moon 3:05 PM EDT (4/10) 3:43 AM EDT (4/10)
Length of Visible Light 14h 01m
Length of Day
13h 05m
Waxing Gibbous, 79% of the Moon is Illuminated
Apr 10
Waxing Gibbous
Apr 15
Full
Apr 22
Last Quarter
Apr 29
New
May 6
First Quarter

Hourly Weather History & Observations

Time (EDT) Temp. Windchill Dew Point Humidity Pressure Visibility Wind Dir Wind Speed Gust Speed Precip Events Conditions
12:56 AM 39.9 °F 37.8 °F 16.0 °F 38% 30.06 in 10.0 mi North 3.5 mph - N/A   Clear
1:56 AM 37.9 °F 35.5 °F 17.1 °F 43% 30.07 in 10.0 mi WNW 3.5 mph - N/A   Clear
2:56 AM 33.1 °F 30.0 °F 19.9 °F 59% 30.09 in 10.0 mi West 3.5 mph - N/A   Clear
3:56 AM 30.0 °F - 19.0 °F 64% 30.10 in 10.0 mi Calm Calm - N/A   Clear
4:56 AM 28.9 °F - 18.0 °F 64% 30.12 in 10.0 mi Calm Calm - N/A   Clear
5:56 AM 28.0 °F - 18.0 °F 66% 30.15 in 10.0 mi Calm Calm - N/A   Clear
6:56 AM 28.0 °F - 19.0 °F 69% 30.18 in 10.0 mi Calm Calm - N/A   Clear
8:56 AM 46.9 °F - 26.1 °F 44% 30.23 in 10.0 mi SSW 10.4 mph - N/A   Clear
9:56 AM 48.0 °F - 24.1 °F 39% 30.24 in 10.0 mi SSW 12.7 mph - N/A   Clear
10:56 AM 48.9 °F - 24.1 °F 38% 30.25 in 10.0 mi South 15.0 mph - N/A   Clear
11:56 AM 50.0 °F - 25.0 °F 38% 30.24 in 10.0 mi South 17.3 mph 21.9 mph N/A   Clear
12:56 PM 50.0 °F - 27.0 °F 41% 30.22 in 10.0 mi SSW 15.0 mph - N/A   Clear
1:56 PM 50.0 °F - 28.0 °F 43% 30.22 in 10.0 mi SSW 17.3 mph - N/A   Clear
2:56 PM 52.0 °F - 28.0 °F 40% 30.19 in 10.0 mi SSW 13.8 mph - N/A   Clear
3:56 PM 51.1 °F - 28.9 °F 43% 30.17 in 10.0 mi SSW 20.7 mph 28.8 mph N/A   Clear
4:56 PM 52.0 °F - 34.0 °F 50% 30.14 in 10.0 mi South 12.7 mph 25.3 mph N/A   Clear
5:56 PM 51.1 °F - 37.0 °F 59% 30.12 in 10.0 mi South 16.1 mph 23.0 mph N/A   Clear
6:56 PM 50.0 °F - 37.0 °F 61% 30.12 in 10.0 mi South 15.0 mph - N/A   Clear
7:56 PM 48.0 °F - 37.9 °F 68% 30.11 in 10.0 mi SSW 17.3 mph 27.6 mph N/A   Clear
8:56 PM 48.0 °F - 39.9 °F 74% 30.11 in 10.0 mi SSW 13.8 mph 25.3 mph N/A   Clear
9:56 PM 48.0 °F - 39.9 °F 74% 30.12 in 10.0 mi SSW 11.5 mph - N/A   Clear
10:56 PM 48.0 °F - 39.0 °F 71% 30.09 in 10.0 mi SSW 11.5 mph 17.3 mph N/A   Clear
11:56 PM 48.0 °F - 37.9 °F 68% 30.07 in 10.0 mi South 11.5 mph - N/A   Clear